Location: Chefe Valiua
(16.5342°S, 37.2214°E)
Time: 01:01:16
(UTC+00:00)

Cosmos 1076 Rocket - Pass Details

Date: 19 January 2021
Orbit: 588 x 613 km, 82.5° (Epoch: 07 March)

Event Time Altitude Azimuth Distance (km) Brightness Sun altitude
Rises 17:25:45 0° 169° (S) 2,885 7.2 -17.2°
Reaches altitude 10° 17:28:12 10° 158° (SSE) 1,977 6.2 -17.7°
Enters shadow 17:31:45 30° 104° (ESE) 1,118 4.5 -18.5°
